Regional Weather Roundup
Issued by NWS Upton, NY

Current Version | Previous Version | Text Only | Print | Product List | Glossary On
Versions: 1 2 3 4 5 6 7 8 9 10 11 12 13 14 15 16 17 18 19 20 21 22 23 24 25 26 27 28
000
ASUS41 KOKX 200509
RWROKX

REGIONAL WEATHER ROUNDUP
NATIONAL WEATHER SERVICE NEW YORK NY
100 AM EDT THU JUL 20 2017

NOTE: "FAIR" INDICATES FEW OR NO CLOUDS BELOW 12,000 FEET WITH NO
SIGNIFICANT WEATHER AND/OR OBSTRUCTIONS TO VISIBILITY.

NYZ071-072-176-178-NJZ106-104-200600-
NEW YORK CITY METRO AREA

CITY           SKY/WX    TMP DP  RH WIND       PRES   REMARKS
Central Park   CLEAR     83  66  56 CALM      30.01S
Bronx Bot Gard   N/A     79  64  61 NE1       30.01S
LaGuardia APRT PTCLDY    85  74  69 SE6       29.97F HX  92
Kennedy INTL   MOCLDY    81  76  84 SW9       29.99S
Breezy Point     N/A     77 N/A N/A W5          N/A
Newark/Liberty PTCLDY    83  70  64 SW8       29.98S
Teterboro      PTCLDY    82  69  64 CALM      29.97S
$$

NYZ177-179-078>081-200600-
LONG ISLAND NEW YORK

CITY           SKY/WX    TMP DP  RH WIND       PRES   REMARKS
Jones Beach      N/A     77 N/A N/A W7          N/A
Matinecock PT    N/A     77 N/A N/A E2          N/A
Farmingdale    PTCLDY    79  73  82 SW5       29.99S
MacArthur/ISP  MOCLDY    77  74  90 W5        29.98S
Shirley        PTCLDY    76  74  93 CALM      29.99S
Mt Sinai Harb    N/A    N/A N/A N/A SE2         N/A
Westhampton    CLEAR     75  71  87 SW3       30.01
East Hampton   FAIR      74  71  90 SW5       29.98S
Montauk          N/A     75  72  90 W6        29.99S
$$

NYZ052-065-067-200600-
HUDSON VALLEY

CITY           SKY/WX    TMP DP  RH WIND       PRES   REMARKS
White Plains   CLEAR     75  66  73 NW3       30.00S
Larchmont Harb   N/A     75 N/A N/A MISG        N/A
Croton O-T Hud   N/A     75 N/A N/A MISG        N/A
Newburgh       CLEAR     72  66  83 CALM      30.03R
Montgomery     CLEAR     69  64  84 CALM      30.01R
Poughkeepsie   CLEAR     70  64  81 CALM      29.99R
Albany         PTCLDY    72  64  76 SW3       29.98F
$$

NJZ001-105-106-008-010-013-015-019>022-104-200600-
NEW JERSEY

CITY           SKY/WX    TMP DP  RH WIND       PRES   REMARKS
Newark/Liberty PTCLDY    83  70  64 SW8       29.98S
Teterboro      PTCLDY    82  69  64 CALM      29.97S
Caldwell       MOCLDY    76  70  82 CALM      30.00S
Somerville     PTCLDY    76  73  91 CALM      29.98S
Linden         FAIR      83  68  61 W3        29.99S
Perth Amboy      N/A     81 N/A N/A SW7         N/A
Sussex         CLEAR     71  69  93 W3        30.01S
Andover          N/A     72  70  93 CALM      30.03R
Trenton        CLEAR     81  72  74 CALM      30.00S
Millville      CLEAR     76  76 100 VRB3      30.02S
Atlantic City  PTCLDY    77  73  87 SW5       30.02S
Wrightstown    CLEAR     75  71  85 SW3       29.98F
Toms River     CLEAR     76  71  85 SW5       30.01F
Belmar         CLEAR     78  72  81 SW6       30.01F
$$

PAZ047>061-062-071-200600-
EASTERN PENNSYLVANIA

CITY           SKY/WX    TMP DP  RH WIND       PRES   REMARKS
Philadelphia   PTCLDY    81  74  79 SW3       30.01S
Allentown      CLEAR     76  69  79 W5        30.01F
Scranton       CLEAR     70  67  90 E3        30.05R
$$

CTZ002-004>006-009-010-012-RIZ004-006-007-MAZ004-011-015-200600-
SOUTHERN NEW ENGLAND
 IN CT

CITY           SKY/WX    TMP DP  RH WIND       PRES   REMARKS
Bradley INTL   CLOUDY    75  65  70 NW3       29.98S
Hartford       CLOUDY    75  70  84 S5        29.97S
Danbury        CLEAR     68  64  87 CALM      30.02S
Wtrbury/Oxford CLEAR     68  61  77 CALM      30.01F
Bridgeport     CLEAR     78  66  66 CALM      29.98S
Meriden        CLOUDY    70  68  93 CALM      29.98S
New Haven      CLEAR     77  68  73 W3        29.98S
Chester        FAIR      72  72 100 CALM      30.00S
Groton         CLEAR     73  71  93 CALM      29.97S
Wilimantic     PTCLDY    72  69  90 CALM      29.99S

 IN RI

CITY           SKY/WX    TMP DP  RH WIND       PRES   REMARKS
Providence     CLEAR     75  73  93 W5        29.97S
Block Island   CLEAR     72  70  93 W12       29.99S
Westerly       CLEAR     74  72  93 CALM      29.98F
 IN MA

CITY           SKY/WX    TMP DP  RH WIND       PRES   REMARKS
Boston         PTCLDY    79  62  56 W8        29.94F
Worcester      PTCLDY    72  58  61 W9        30.01S
Westfield      CLOUDY    69  69 100 CALM      29.98S
Provincetown   MOCLDY    70  68  93 SW7       29.95F
Nantucket      FOG       70  70 100 SW7       29.98S VSB 1/4
$$

ANZ330-335-338-340-345-350-353-355-200600-
COASTAL MARINE OBSERVATIONS


STATION/POSITION TIME  SKY/WX   TEMP    WIND        PRES    VSBY  WAVE
                                AIR SEA DIR/SP/G                  HT/PER
                 (UTC)          (F)     (DEG/KT/KT) (MB)    (MI)  (FT/S)
NY HARB ENTRANCE 0350            78 76  230/ 10/ 10 1015.2          3/ 5
20 S FIRE ISLAND 0450            77 75  230/ 14/ 16 1015.0          3/ 4
GREAT SOUTH BAY  0430            79 81  250/ 10/ 14   N/A
23 SSW MONTAUK P 0350            76 75              1015.7          3/ 5
15 E BARNEGAT LI 0430               78                N/A           3/15
HUDSON CANYON    0350            78 78  230/ 14/ 17 1015.5          3/15
KINGS POINT      0442            77 74  190/  2/  3 1015.1
EXECUTION ROCKS  0445            76     130/  2/  4   N/A
CENTRAL LI SOUND 0430            78     240/ 10/ 12   N/A           1
EASTERN LI SOUND NOT AVBL
ROBBINS REEF     0436                   230/  7/  9 1015.9
$$


>>>>>>>>>>>>>>>>>>>>>>>>>>>> KEY <<<<<<<<<<<<<<<<<<<<<<<<<<<
>                                                          <
>     SKY/WX - Sky Condition/Present Weather               <
>     TMP    - Temperature in Fahrenheit                   <
>     DP     - Dew Point in Fahrenheit                     <
>     RH     - Relative Humidity in Percent                <
>     WIND   - Direction (from) and Speed in MPH           <
>     PRES   - Mean Sea Level Pressure (inches of Hg)      <
>     WCI    - Wind Chill Index                            <
>     VSB    - VISIBILITY IN MILES                         <
>     HX     - HEAT INDEX                                  <
>     TC     - TEMPERATURE IN CELSIUS                      <
>     VRB    - VARIABLE WIND DIRECTION                     <
>                                                          <
>>>>>>>>>>>>>>>>>>>>>>>>>>>> KEY <<<<<<<<<<<<<<<<<<<<<<<<<<<




USA.gov is the U.S. government's official web portal to all federal, state and local government web resources and services.